Total_Precipitation_Accumulation
0.32 0.41 0.42 0.39 0.40 0.41 0.45 0.56 0.62 0.54 0.54 0.64 0.76 0.85 0.95 0.96 0.96 0.85 0.68 0.68 0.61 0.55 0.50 0.47 0.48 0.53 0.60 0.64 0.68 0.76 0.83 0.88 0.97 1.14 1.37 1.60 1.80 1.97
0.39 0.45 0.51 0.51 0.51 0.51 0.52 0.60 0.73 0.71 0.66 0.67 0.75 0.76 0.76 0.62 0.64 0.64 0.61 0.63 0.55 0.50 0.48 0.45 0.42 0.43 0.46 0.51 0.54 0.56 0.59 0.61 0.62 0.66 0.73 0.85 1.00 1.25
0.38 0.44 0.48 0.55 0.62 0.63 0.68 0.70 0.73 0.84 0.78 0.66 0.77 0.86 0.78 0.60 0.51 0.51 0.53 0.53 0.51 0.50 0.47 0.46 0.44 0.43 0.42 0.41 0.45 0.48 0.48 0.49 0.49 0.48 0.49 0.52 0.51 0.55
0.36 0.46 0.50 0.52 0.58 0.65 0.76 0.79 0.81 0.93 0.93 0.78 0.85 0.94 0.86 0.74 0.61 0.53 0.44 0.43 0.44 0.48 0.47 0.48 0.47 0.44 0.42 0.40 0.38 0.37 0.37 0.36 0.38 0.37 0.36 0.35 0.35 0.36
0.34 0.42 0.50 0.58 0.61 0.65 0.75 0.79 0.85 1.00 1.05 0.96 0.96 1.06 1.09 0.88 0.66 0.51 0.42 0.42 0.39 0.43 0.45 0.47 0.47 0.44 0.40 0.39 0.40 0.36 0.32 0.30 0.28 0.28 0.29 0.30 0.31 0.32
0.35 0.39 0.43 0.55 0.64 0.69 0.76 0.88 0.96 1.04 1.12 1.10 1.13 1.24 1.24 1.10 0.85 0.57 0.48 0.45 0.43 0.39 0.42 0.42 0.43 0.41 0.38 0.34 0.33 0.33 0.33 0.33 0.30 0.26 0.24 0.23 0.24 0.24
0.26 0.33 0.34 0.40 0.49 0.61 0.69 0.80 0.97 1.12 1.28 1.33 1.34 1.50 1.46 1.26 0.99 0.70 0.58 0.52 0.49 0.46 0.43 0.37 0.35 0.33 0.31 0.31 0.30 0.30 0.29 0.28 0.29 0.29 0.27 0.24 0.22 0.22
0.23 0.29 0.30 0.30 0.33 0.38 0.49 0.63 0.78 0.95 1.16 1.34 1.47 1.56 1.62 1.48 1.27 1.02 0.71 0.53 0.49 0.50 0.48 0.46 0.42 0.38 0.34 0.30 0.31 0.29 0.29 0.27 0.25 0.25 0.26 0.28 0.27 0.23
0.23 0.27 0.22 0.18 0.26 0.31 0.36 0.43 0.53 0.64 0.80 1.01 1.21 1.31 1.49 1.60 1.47 1.18 0.90 0.70 0.56 0.53 0.52 0.48 0.47 0.45 0.42 0.38 0.40 0.34 0.30 0.29 0.27 0.24 0.24 0.24 0.26 0.27
0.25 0.28 0.28 0.26 0.28 0.34 0.40 0.39 0.39 0.42 0.49 0.60 0.77 1.00 1.21 1.43 1.48 1.37 1.27 1.02 0.79 0.63 0.58 0.50 0.44 0.42 0.43 0.41 0.41 0.37 0.34 0.33 0.31 0.30 0.28 0.27 0.26 0.26
0.27 0.32 0.36 0.33 0.28 0.25 0.33 0.35 0.35 0.34 0.34 0.42 0.55 0.76 1.01 1.19 1.36 1.35 1.25 1.11 0.90 0.67 0.55 0.48 0.41 0.39 0.39 0.36 0.36 0.37 0.35 0.36 0.36 0.34 0.33 0.32 0.31 0.31
0.40 0.43 0.40 0.33 0.30 0.23 0.28 0.34 0.32 0.31 0.36 0.37 0.43 0.54 0.67 0.92 1.12 1.13 1.05 0.97 0.86 0.67 0.50 0.44 0.39 0.38 0.40 0.31 0.26 0.27 0.29 0.35 0.40 0.40 0.39 0.37 0.36 0.29
0.45 0.46 0.47 0.39 0.30 0.23 0.24 0.30 0.28 0.32 0.43 0.46 0.47 0.54 0.65 0.78 0.95 1.04 1.01 0.88 0.77 0.62 0.48 0.44 0.40 0.36 0.32 0.27 0.24 0.24 0.24 0.24 0.28 0.34 0.40 0.45 0.43 0.34
0.54 0.56 0.57 0.47 0.38 0.31 0.25 0.23 0.24 0.26 0.37 0.44 0.47 0.49 0.55 0.64 0.79 1.00 1.11 1.03 0.85 0.71 0.65 0.58 0.47 0.41 0.33 0.24 0.21 0.22 0.26 0.27 0.25 0.26 0.31 0.45 0.50 0.49
0.57 0.68 0.69 0.56 0.50 0.44 0.36 0.29 0.27 0.27 0.34 0.42 0.40 0.42 0.46 0.55 0.72 1.01 1.24 1.36 1.22 0.95 0.82 0.71 0.60 0.52 0.44 0.31 0.21 0.19 0.22 0.26 0.26 0.26 0.27 0.33 0.39 0.44
0.54 0.65 0.72 0.72 0.68 0.62 0.52 0.40 0.31 0.31 0.34 0.40 0.45 0.48 0.57 0.66 0.77 0.84 1.05 1.24 1.29 1.15 0.95 0.82 0.71 0.66 0.57 0.42 0.29 0.21 0.18 0.19 0.22 0.25 0.29 0.30 0.35 0.41
0.59 0.76 0.90 0.95 0.97 0.91 0.78 0.65 0.54 0.50 0.46 0.47 0.56 0.61 0.66 0.69 0.72 0.76 0.89 1.03 1.03 0.97 0.91 0.88 0.85 0.78 0.73 0.63 0.43 0.27 0.21 0.17 0.18 0.23 0.29 0.33 0.35 0.40
0.46 0.71 0.99 1.09 1.13 1.12 1.03 0.87 0.75 0.68 0.64 0.64 0.67 0.69 0.69 0.73 0.77 0.81 0.86 0.95 0.94 0.86 0.83 0.81 0.87 0.90 0.83 0.75 0.57 0.37 0.26 0.20 0.18 0.22 0.27 0.31 0.33 0.37
0.33 0.54 0.83 1.05 1.15 1.20 1.14 0.98 0.83 0.79 0.82 0.79 0.76 0.75 0.74 0.74 0.80 0.85 0.86 0.90 0.92 0.87 0.80 0.80 0.81 0.81 0.74 0.60 0.51 0.39 0.31 0.26 0.26 0.25 0.26 0.27 0.28 0.30
0.30 0.45 0.70 0.97 1.08 1.14 1.12 1.07 0.96 0.93 0.93 0.89 0.85 0.82 0.80 0.79 0.77 0.79 0.82 0.83 0.85 0.90 0.83 0.77 0.72 0.67 0.61 0.55 0.51 0.46 0.37 0.36 0.35 0.32 0.28 0.29 0.32 0.37
0.39 0.45 0.60 0.82 0.97 1.06 1.07 1.05 1.01 0.99 0.99 0.98 0.94 0.90 0.86 0.86 0.81 0.75 0.79 0.84 0.87 0.90 0.81 0.63 0.58 0.66 0.75 0.80 0.70 0.54 0.42 0.39 0.43 0.42 0.37 0.36 0.37 0.40
0.49 0.51 0.58 0.74 0.90 1.01 1.04 1.02 1.04 1.03 1.04 1.03 1.00 0.95 0.89 0.87 0.87 0.84 0.84 0.85 0.80 0.77 0.78 0.76 0.79 0.83 0.81 0.73 0.61 0.57 0.51 0.46 0.49 0.52 0.47 0.39 0.34 0.32
0.60 0.57 0.61 0.72 0.83 0.94 0.96 0.95 0.98 1.04 1.04 1.03 1.01 0.99 0.95 0.92 0.92 0.92 0.87 0.89 0.88 0.87 0.93 0.97 0.94 0.86 0.77 0.72 0.65 0.61 0.60 0.55 0.53 0.50 0.42 0.37 0.31 0.29